This demonstration page uses our WeatherBlox Daily Observations layout. Learn more.

Left ArrowRight Arrow

Hourly Observations for April 15, 2016

Temp ( °F °C ) Dew Point ( °F °C ) Humidity (%) Winds ( mph kmh ) Pressure ( in mb ) Visibility ( mi km ) Precip ( " mm )
12:54 am 00:54 Clear 60 15.6 41 5 50 50 SSE 15 24 29.89 1012 10 16 0.00 0.00
1:54 am 01:54 Clear 57 13.9 42 5.6 58 58 SSE 12 19 29.88 1012 10 16 0.00 0.00
2:54 am 02:54 Clear 55 12.8 42 5.6 62 62 S 12 19 29.88 1012 10 16 0.00 0.00
3:54 am 03:54 Clear 50 10 42 5.6 74 74 S 9 15 29.88 1012 10 16 0.00 0.00
4:54 am 04:54 Clear 50 10 43 6.1 77 77 S 9 15 29.89 1012 9 14 0.00 0.00
5:54 am 05:54 Clear 48 8.9 42 5.6 80 80 S 9 15 29.89 1012 10 16 0.00 0.00
6:54 am 06:54 Sunny 52 11.1 43 6.1 72 72 SSE 13 20 29.89 1012 10 16 0.00 0.00
7:54 am 07:54 Sunny 56 13.3 44 6.7 65 65 SSE 14 22 29.88 1012 10 16 0.00 0.00
8:54 am 08:54 Sunny 61 16.1 46 7.8 58 58 S 20 31 29.89 1012 10 16 0.00 0.00
9:54 am 09:54 Mostly Sunny 65 18.3 48 8.9 54 54 S 22 35 29.88 1012 10 16 0.00 0.00
10:54 am 10:54 Sunny 68 20 48 8.9 49 49 S 25 41 29.89 1012 10 16 0.00 0.00
11:54 am 11:54 Mostly Sunny 71 21.7 49 9.4 46 46 S 24 39 29.89 1012 10 16 0.00 0.00
12:54 pm 12:54 Sunny 74 23.3 47 8.3 38 38 S 26 43 29.87 1011 10 16 0.00 0.00
1:54 pm 13:54 Sunny 77 25 46 7.8 33 33 SSE 26 43 29.86 1011 10 16 0.00 0.00
2:54 pm 14:54 Sunny 77 25 45 7.2 32 32 SSE 25 41 29.85 1011 10 16 0.00 0.00
3:54 pm 15:54 Sunny 79 26.1 45 7.2 30 30 SSE 29 46 29.83 1010 10 16 0.00 0.00
4:54 pm 16:54 Sunny 79 26.1 46 7.8 31 31 SSE 23 37 29.83 1010 10 16 0.00 0.00
5:54 pm 17:54 Sunny 76 24.4 47 8.3 36 36 SSE 24 39 29.84 1011 10 16 0.00 0.00
6:54 pm 18:54 Sunny 73 22.8 49 9.4 43 43 SSE 20 31 29.85 1011 10 16 0.00 0.00
7:54 pm 19:54 Sunny 71 21.7 48 8.9 44 44 SE 20 31 29.86 1011 10 16 0.00 0.00
8:54 pm 20:54 Clear 69 20.6 49 9.4 49 49 SE 21 33 29.88 1012 10 16 0.00 0.00
9:54 pm 21:54 Clear 68 20 49 9.4 51 51 SE 16 26 29.90 1013 10 16 0.00 0.00
10:54 pm 22:54 Clear 66 18.9 50 10 56 56 SE 15 24 29.91 1013 10 16 0.00 0.00
11:54 pm 23:54 Clear 64 17.8 50 10 60 60 SE 12 19 29.91 1013 10 16 0.00 0.00

Powered by AerisWeather